User: anonymous   Login
Location: Unspecified
(0.0000°N, 0.0000°E)
Time: 00:19:19
(UTC+00:00)
Language:

DSP F16 - Orbit

View from above orbital plane
View from above orbital plane
View from above satellite
View from above satellite

Ground track
Ground track

The orbit data is extracted from the following two-line orbital elements,

1 21805U 91080B   17063.87844566 0.00000000  00000-0  00000-0 0    02
2 21805  15.0817  14.1662 0002305 271.3500  88.6357  0.99197892    09
Epoch (UTC): 04 March 2017 21:04:57
Eccentricity: 0.0002305
inclination: 15.0817°
perigee height: 36080 km
apogee height: 36100 km
right ascension of ascending node: 14.1662°
argument of perigee: 271.3500°
revolutions per day: 0.99197892
mean anomaly at epoch: 88.6357°
orbit number at epoch: 0

The dashed part of the orbit path shows where the satellite is in the earth's shadow,  

DLR